Satin, Texas
Current Conditions -  °F | °C
As of 7:15 AM on Sunday 23 Nov 2014 (Local Time) from KPWG Reporting Station
Clear Clear  
Wind Chill: 52°   Ceiling: Unl
Heat Index: 52°   Visibility: 10mi
Dew Point: 46°   Wind: 5mph
Humidity: 82%   Direction: 190°S
Pressure: 29.64"   Gusts: NA
Location:  31.35°N, 97.03°W
Report Text: KPWG 231315Z AUTO 19004KT 10SM CLR 11/08 A2964 RMK AO1
Loading
Personal Weather Stations






























Interactive Weather Map New forecast layout! Learn more

10-Day Weather Forecast

Advertisements
Track Severe Weather on mobile